Weather History for Orlando, FL

Change the Weather History Date:

Thursday, June 20, 2013

  Actual Average Record
Temperature  
Mean Temperature 83 °F -  
Max Temperature 93 °F 88 °F 99 °F (1998)
Min Temperature 73 °F 71 °F 72 °F (2000)
Cooling Degree Days 18    
Growing Degree Days 33 (Base 50)    
Moisture  
Dew Point 72 °F    
Average Humidity 80    
Maximum Humidity 100    
Minimum Humidity 45    
Precipitation  
Precipitation 0.36 in - - ()
Sea Level Pressure  
Sea Level Pressure 30.09 in    
Wind  
Wind Speed 4 mph (SSW)    
Max Wind Speed 12 mph    
Max Gust Speed -    
Visibility 8 miles    
Events Rain , Thunderstorm    
Averages and records for this station are not official NWS values.
T = Trace of Precipitation, MM = Missing Value Source: NWS Daily Summary

Daily Weather History Graph

Daily Weather History Graph

Search for Another Location

Airport:

Trip Planner

Search our weather history database for the weather conditions in past years. The results will help you decide how hot, cold, wet, or windy it might be!

Date:

Astronomy

Jun. 20, 2013 Rise Set
Actual Time 6:28 AM EDT 8:25 PM EDT
Civil Twilight 6:01 AM EDT 8:52 PM EDT
Nautical Twilight 5:28 AM EDT 9:25 PM EDT
Astronomical Twilight 4:53 AM EDT 10:00 PM EDT
Moon 5:34 PM EDT (6/20) 3:43 AM EDT (6/20)
Length of Visible Light 14h 51m
Length of Day
13h 57m
Waxing Gibbous, 89% of the Moon is Illuminated
Jun 20
Waxing Gibbous
Jun 23
Full
Jun 30
Last Quarter
Jul 8
New
Jul 15
First Quarter

Hourly Weather History & Observations

Time (EDT) Temp. Heat Index Dew Point Humidity Pressure Visibility Wind Dir Wind Speed Gust Speed Precip Events Conditions
12:53 AM 78.1 °F - 73.0 °F 84% 30.07 in 10.0 mi South 4.6 mph - N/A   Clear
1:53 AM 77.0 °F - 73.9 °F 90% 30.07 in 10.0 mi SSW 3.5 mph - N/A   Clear
2:53 AM 77.0 °F - 73.0 °F 88% 30.04 in 10.0 mi Calm Calm - N/A   Clear
3:53 AM 77.0 °F - 72.0 °F 84% 30.04 in 10.0 mi Calm Calm - N/A   Clear
4:53 AM 75.9 °F - 72.0 °F 87% 30.04 in 10.0 mi South 6.9 mph - N/A   Clear
5:53 AM 75.9 °F - 72.0 °F 87% 30.05 in 10.0 mi South 3.5 mph - N/A   Clear
6:53 AM 75.9 °F - 72.0 °F 87% 30.07 in 10.0 mi Calm Calm - N/A   Clear
7:53 AM 78.1 °F - 72.0 °F 81% 30.09 in 10.0 mi SSW 3.5 mph - N/A   Mostly Cloudy
8:32 AM 80.6 °F 84.6 °F 71.6 °F 74% 30.09 in 10.0 mi WSW 3.5 mph - N/A   Mostly Cloudy
8:48 AM 80.6 °F 85.4 °F 73.4 °F 79% 30.09 in 10.0 mi WSW 4.6 mph - N/A   Scattered Clouds
8:53 AM 81.0 °F 85.8 °F 73.0 °F 77% 30.10 in 10.0 mi Calm Calm - N/A   Scattered Clouds
9:53 AM 82.9 °F 89.4 °F 73.9 °F 74% 30.11 in 10.0 mi Calm Calm - N/A   Scattered Clouds
10:20 AM 84.2 °F 90.9 °F 73.4 °F 70% 30.10 in 10.0 mi SSE 5.8 mph - N/A   Mostly Cloudy
10:28 AM 84.2 °F 90.9 °F 73.4 °F 70% 30.10 in 10.0 mi Variable 3.5 mph - N/A   Mostly Cloudy
10:36 AM 84.2 °F 90.9 °F 73.4 °F 70% 30.10 in 10.0 mi South 3.5 mph - N/A   Mostly Cloudy
10:46 AM 84.2 °F 90.9 °F 73.4 °F 70% 30.10 in 10.0 mi Calm Calm - N/A   Mostly Cloudy
10:53 AM 84.9 °F 92.1 °F 73.9 °F 69% 30.11 in 10.0 mi Variable 3.5 mph - N/A   Mostly Cloudy
11:53 AM 84.9 °F 91.4 °F 73.0 °F 67% 30.10 in 10.0 mi West 4.6 mph - N/A   Mostly Cloudy
12:53 PM 87.1 °F 94.5 °F 73.0 °F 63% 30.10 in 10.0 mi NNW 4.6 mph - N/A   Mostly Cloudy
1:53 PM 90.0 °F 97.9 °F 73.0 °F 57% 30.08 in 10.0 mi Variable 4.6 mph - N/A   Mostly Cloudy
2:53 PM 91.9 °F 97.4 °F 70.0 °F 48% 30.06 in 10.0 mi Variable 6.9 mph - N/A   Partly Cloudy
3:53 PM 93.0 °F 97.9 °F 69.1 °F 45% 30.04 in 10.0 mi NE 8.1 mph - N/A   Partly Cloudy
4:53 PM 82.0 °F 85.5 °F 69.1 °F 65% 30.05 in 10.0 mi East 8.1 mph - 0.00 in   Scattered Clouds
5:02 PM 82.4 °F 86.3 °F 69.8 °F 66% 30.06 in 10.0 mi SE 9.2 mph - N/A Thunderstorm Scattered Clouds
5:53 PM 79.0 °F - 69.1 °F 72% 30.07 in 10.0 mi SE 8.1 mph - 0.00 in Thunderstorm Partly Cloudy
6:33 PM 78.8 °F - 71.6 °F 78% 30.10 in 5.0 mi WSW 4.6 mph - 0.02 in Rain , Thunderstorm Rain
6:53 PM 77.0 °F - 73.9 °F 90% 30.13 in 5.0 mi SW 11.5 mph - 0.04 in Rain , Thunderstorm Thunderstorms and Rain
7:07 PM 75.2 °F - 73.4 °F 94% 30.12 in 2.0 mi WSW 8.1 mph - 0.08 in Rain , Thunderstorm Heavy Thunderstorms and Rain
7:23 PM 75.2 °F - 73.4 °F 94% 30.11 in 4.0 mi West 6.9 mph - 0.11 in Rain , Thunderstorm Rain
7:36 PM 73.4 °F - 73.4 °F 100% 30.10 in 2.5 mi Calm Calm - 0.14 in Rain Heavy Rain
7:51 PM 75.2 °F - 73.4 °F 94% 30.10 in 3.0 mi South 3.5 mph - 0.20 in Rain Heavy Rain
7:53 PM 75.0 °F - 73.9 °F 96% 30.11 in 2.5 mi South 4.6 mph - 0.20 in Rain Rain
8:28 PM 73.4 °F - 71.6 °F 94% 30.08 in 4.0 mi Calm Calm - 0.11 in Rain Rain
8:53 PM 73.9 °F - 73.0 °F 97% 30.09 in 10.0 mi NW 6.9 mph - 0.12 in Rain Light Rain
9:53 PM 75.0 °F - 73.0 °F 94% 30.08 in 10.0 mi South 8.1 mph - 0.00 in   Clear
10:53 PM 73.9 °F - 72.0 °F 93% 30.10 in 10.0 mi NE 3.5 mph - N/A   Clear
11:53 PM 73.9 °F - 73.0 °F 97% 30.12 in 8.0 mi East 3.5 mph - N/A   Clear